TITAN 3C TRANSTAGE DEB, 1915

Orbit data source: Space-Track

TITAN 3C TRANSTAGE DEB, 1915 is space debris in LEO originally from a launch on Fri, 15 Oct 1965 UTC launched from the Air Force Eastern Test Range (AFETR). Debris objects in space refer to the collection of defunct objects orbiting the Earth. Examples of debris include non-operational satellites, rocket bodies, and fragments generated from explosions, collisions, or faulty payload assembly.

Loading next visibility...
Identifier
1915, 1965-082FZ
Orbit
LEO
Country
Flag of USUS
Related business
Manufacturer
Unknown
Mission
Spacecraft
Bus & Motor
Unknown
Mass
Unknown
Launch date (UTC)
1965-10-15 (60 years ago)
Launch vehicle
Unknown
Launch site
Air Force Eastern Test Range (AFETR)
Object type
Payload
Rocket body
Debris
Shape & HBR
Unknown shape, 0.1 m
Radar Cross Section
Small (<0.1 m²)

Expand to show TLE details & history
Last TLE update: 22 hours ago

TLE from 22 hours ago
0 TITAN 3C TRANSTAGE DEB
1  1915U 65082FZ  25297.22467119  .00000977  00000-0  19819-3 0  9998
2  1915  31.8766 242.7470 0029087 304.9476  54.8433 14.58208306180951
Epoch: 2025-10-24T05:23Z
TLE epoch observation values (Epoch: 2025-10-24T05:23:31.590Z)
Latitude
-0.00001°
Longitude
128.99273°
Altitude
685.783 km
Speed
7.522 km/s
True Right ascension
16h 10m 59s
True Declination
0° 00' 00"
Sunlit
Object was in daylight at epoch
Visualization orbit readout
Latitude
Unknown
Longitude
Unknown
Altitude
Unknown
Speed
Unknown
Apparent Right ascension
Unknown
Apparent Declination
Unknown
Sunlit
N/A
Visualization observer readout
Local Sidereal Time
22:38:30
Azimuth
Unknown
Elevation
Unknown
Doppler factor
Unknown
Orbital elements
Apogee altitude
723.186 km
Perigee altitude
681.995 km
Semi-major axis
7,080.728 km
Eccentricity
0.00291
Inclination
31.8766°
RAAN
242.747°
Arg. of periapsis
304.9476°
True anomaly
55.11638°
Mean anomaly
54.8433°
Eccentric anomaly
54.97978°
Mean motion
3.64272 °/min
Orbital period
98.83 mins
BSTAR
0.00019819

Documentation

Showing up to 5 results
|